Weather History for Morris, MN

Change the Weather History Date:

Saturday, December 15, 2012

  Actual Average Record
Temperature  
Mean Temperature 26 °F -  
Max Temperature 35 °F 24 °F 46 °F (2004)
Min Temperature 17 °F 9 °F -20 °F (2008)
Degree Days  
Heating Degree Days 39    
Moisture  
Dew Point 28 °F    
Average Humidity 90    
Maximum Humidity 100    
Minimum Humidity 81    
Precipitation  
Precipitation 0.29 in - - ()
Sea Level Pressure  
Sea Level Pressure 29.60 in    
Wind  
Wind Speed 12 mph (NNE)    
Max Wind Speed 25 mph    
Max Gust Speed 30 mph    
Visibility 5 miles    
Events Rain , Snow    
Averages and records for this station are not official NWS values.
T = Trace of Precipitation, MM = Missing Value Source: NWS Daily Summary

Daily Weather History Graph

Daily Weather History Graph

Search for Another Location

Airport:

Trip Planner

Search our weather history database for the weather conditions in past years. The results will help you decide how hot, cold, wet, or windy it might be!

Date:

Astronomy

Dec. 15, 2012 Rise Set
Actual Time 7:57 AM CST 4:40 PM CST
Civil Twilight 7:23 AM CST 5:15 PM CST
Nautical Twilight 6:45 AM CST 5:52 PM CST
Astronomical Twilight 6:09 AM CST 6:28 PM CST
Moon 9:45 AM CST (12/15) 7:52 PM CST (12/15)
Length of Visible Light 9h 51m
Length of Day
8h 43m
Waxing Crescent, 8% of the Moon is Illuminated
Dec 15
Waxing Crescent
Dec 19
First Quarter
Dec 28
Full
Jan 4
Last Quarter
Jan 11
New

Hourly Weather History & Observations

Time (CST) Temp. Windchill Dew Point Humidity Pressure Visibility Wind Dir Wind Speed Gust Speed Precip Events Conditions
12:13 AM 30.2 °F 20.2 °F 26.6 °F 86% 29.66 in 7.0 mi ESE 12.7 mph - N/A   Clear
12:33 AM 32.0 °F 22.5 °F 28.4 °F 87% 29.66 in 7.0 mi ESE 12.7 mph - N/A   Clear
12:53 AM 33.8 °F 24.8 °F 28.4 °F 81% 29.66 in 10.0 mi ESE 12.7 mph - N/A   Clear
1:13 AM 32.0 °F 23.0 °F 28.4 °F 87% 29.65 in 7.0 mi ESE 11.5 mph - N/A   Unknown
1:33 AM 33.8 °F 25.3 °F 28.4 °F 81% 29.64 in 10.0 mi ESE 11.5 mph - N/A   Clear
1:53 AM 35.6 °F 26.6 °F 30.2 °F 81% 29.63 in 10.0 mi ESE 13.8 mph - N/A   Clear
2:13 AM 35.6 °F 27.1 °F 30.2 °F 81% 29.63 in 10.0 mi ESE 12.7 mph - N/A   Clear
2:33 AM 35.6 °F 26.6 °F 30.2 °F 81% 29.62 in 10.0 mi ESE 13.8 mph - N/A   Scattered Clouds
2:53 AM 35.6 °F 27.5 °F 30.2 °F 81% 29.61 in 10.0 mi ESE 11.5 mph - N/A   Scattered Clouds
3:13 AM 35.6 °F 27.5 °F 30.2 °F 81% 29.62 in 10.0 mi ESE 11.5 mph - N/A   Mostly Cloudy
3:33 AM 35.6 °F 28.0 °F 30.2 °F 81% 29.62 in 10.0 mi ESE 10.4 mph - N/A   Overcast
3:53 AM 35.6 °F 28.6 °F 30.2 °F 81% 29.62 in 10.0 mi SE 9.2 mph - N/A   Overcast
4:13 AM 35.6 °F 27.5 °F 30.2 °F 81% 29.62 in 10.0 mi SE 11.5 mph - N/A   Overcast
4:33 AM 35.6 °F 28.0 °F 30.2 °F 81% 29.61 in 10.0 mi ESE 10.4 mph - N/A   Overcast
4:53 AM 35.6 °F 27.5 °F 30.2 °F 81% 29.60 in 10.0 mi ESE 11.5 mph - N/A   Overcast
5:13 AM 35.6 °F 28.0 °F 32.0 °F 87% 29.59 in 10.0 mi ESE 10.4 mph - N/A   Overcast
5:33 AM 35.6 °F 28.6 °F 32.0 °F 87% 29.59 in 7.0 mi ESE 9.2 mph - N/A   Overcast
5:53 AM 35.6 °F 28.6 °F 32.0 °F 87% 29.58 in 7.0 mi East 9.2 mph - N/A   Drizzle
6:13 AM 35.6 °F 29.2 °F 32.0 °F 87% 29.59 in 5.0 mi East 8.1 mph - N/A Rain Light Rain
6:33 AM 35.6 °F 29.9 °F 33.8 °F 93% 29.58 in 5.0 mi East 6.9 mph - 0.01 in Rain Light Rain
6:53 AM 35.6 °F 29.9 °F 32.0 °F 87% 29.58 in 4.0 mi ENE 6.9 mph - 0.01 in   Drizzle
7:13 AM 35.6 °F 29.2 °F 33.8 °F 93% 29.58 in 4.0 mi East 8.1 mph - N/A   Light Drizzle
7:33 AM 33.8 °F 26.4 °F 33.8 °F 100% 29.57 in 4.0 mi ENE 9.2 mph - N/A   Overcast
7:53 AM 33.8 °F 27.7 °F 33.8 °F 100% 29.57 in 4.0 mi NE 6.9 mph - N/A   Overcast
8:13 AM 33.8 °F 27.7 °F 33.8 °F 100% 29.57 in 2.5 mi ENE 6.9 mph - 0.01 in   Overcast
8:33 AM 33.8 °F 27.0 °F 33.8 °F 100% 29.57 in 1.2 mi ENE 8.1 mph - 0.05 in   Overcast
8:53 AM 33.8 °F 27.0 °F 33.8 °F 100% 29.57 in 1.2 mi ENE 8.1 mph - 0.09 in   Overcast
9:13 AM 33.8 °F 27.0 °F 33.8 °F 100% 29.57 in 1.5 mi ENE 8.1 mph - 0.02 in   Overcast
9:33 AM 33.8 °F 27.0 °F 33.8 °F 100% 29.57 in 1.5 mi ENE 8.1 mph - 0.05 in   Overcast
9:53 AM 33.8 °F 27.7 °F 33.8 °F 100% 29.57 in 1.8 mi ENE 6.9 mph - 0.07 in   Overcast
10:13 AM 33.8 °F 28.6 °F 33.8 °F 100% 29.58 in 1.5 mi NE 5.8 mph - 0.02 in   Overcast
10:33 AM 33.8 °F 28.6 °F 32.0 °F 93% 29.58 in 1.2 mi NE 5.8 mph - 0.04 in   Overcast
10:53 AM 33.8 °F 28.6 °F 32.0 °F 93% 29.57 in 1.0 mi NE 5.8 mph - 0.05 in   Overcast
11:13 AM 33.8 °F 27.7 °F 32.0 °F 93% 29.57 in 0.8 mi NNE 6.9 mph - 0.01 in Snow Light Snow
11:33 AM 33.8 °F 29.6 °F 32.0 °F 93% 29.56 in 1.0 mi NNE 4.6 mph - 0.02 in Snow Light Snow
11:53 AM 33.8 °F 28.6 °F 32.0 °F 93% 29.56 in 1.0 mi North 5.8 mph - 0.02 in Snow Light Snow
12:13 PM 33.8 °F 27.7 °F 32.0 °F 93% 29.55 in 0.8 mi North 6.9 mph - N/A Snow Light Snow
12:53 PM 33.8 °F 27.0 °F 32.0 °F 93% 29.54 in 1.0 mi NNW 8.1 mph - N/A Snow Light Snow
1:13 PM 33.8 °F 26.4 °F 32.0 °F 93% 29.53 in 0.8 mi NNW 9.2 mph - 0.01 in Snow Light Snow
1:53 PM 33.8 °F 25.8 °F 32.0 °F 93% 29.53 in 0.5 mi NNW 10.4 mph - 0.02 in Snow Light Snow
2:13 PM 33.8 °F 25.3 °F 32.0 °F 93% 29.53 in 0.5 mi NNW 11.5 mph - 0.01 in Snow Light Snow
2:33 PM 33.8 °F 25.3 °F 32.0 °F 93% 29.53 in 0.8 mi NNW 11.5 mph - 0.02 in Snow Light Snow
2:53 PM 33.8 °F 24.8 °F 32.0 °F 93% 29.53 in 1.0 mi NNW 12.7 mph - 0.03 in Snow Light Snow
3:13 PM 33.8 °F 24.3 °F 32.0 °F 93% 29.54 in 1.2 mi NNW 13.8 mph - N/A Snow Light Snow
3:33 PM 32.0 °F 21.6 °F 30.2 °F 93% 29.54 in 1.0 mi NW 15.0 mph - N/A Snow Light Snow
3:53 PM 30.2 °F 18.1 °F 28.4 °F 93% 29.55 in 1.2 mi NW 18.4 mph - N/A Snow Light Snow
4:13 PM 30.2 °F 18.1 °F 28.4 °F 93% 29.56 in 1.2 mi NNW 18.4 mph 23.0 mph N/A Snow Light Snow
4:33 PM 28.4 °F 16.6 °F 26.6 °F 93% 29.57 in 1.2 mi NNW 16.1 mph - N/A Snow Light Snow
4:53 PM 28.4 °F 17.5 °F 26.6 °F 93% 29.58 in 2.0 mi NNW 13.8 mph - N/A Snow Light Snow
5:13 PM 28.4 °F 18.0 °F 26.6 °F 93% 29.58 in 2.5 mi NNW 12.7 mph - N/A Snow Light Snow
5:53 PM 28.4 °F 16.2 °F 26.6 °F 93% 29.59 in 3.0 mi NNW 17.3 mph - N/A Snow Light Snow
6:13 PM 28.4 °F 17.0 °F 26.6 °F 93% 29.59 in 4.0 mi NNW 15.0 mph - N/A   Overcast
6:33 PM 28.4 °F 16.6 °F 26.6 °F 93% 29.60 in 4.0 mi NW 16.1 mph - N/A   Mostly Cloudy
6:53 PM 28.4 °F 15.8 °F 26.6 °F 93% 29.62 in 4.0 mi NW 18.4 mph - N/A   Overcast
7:13 PM 26.6 °F 14.3 °F 24.8 °F 93% 29.62 in 4.0 mi NNW 16.1 mph - N/A   Overcast
7:33 PM 26.6 °F 12.4 °F 24.8 °F 93% 29.62 in 4.0 mi NW 21.9 mph - N/A   Overcast
7:53 PM 26.6 °F 12.4 °F 24.8 °F 93% 29.63 in 5.0 mi NW 21.9 mph - N/A   Overcast
8:13 PM 24.8 °F 10.3 °F 21.2 °F 86% 29.63 in 7.0 mi NW 20.7 mph - N/A   Mostly Cloudy
8:33 PM 24.8 °F 11.1 °F 21.2 °F 86% 29.63 in 7.0 mi NW 18.4 mph - N/A   Scattered Clouds
8:53 PM 24.8 °F 10.3 °F 21.2 °F 86% 29.64 in 7.0 mi NW 20.7 mph 25.3 mph N/A   Clear
9:13 PM 23.0 °F 8.0 °F 19.4 °F 86% 29.64 in 10.0 mi NW 20.7 mph - N/A   Clear
9:33 PM 21.2 °F 4.2 °F 17.6 °F 86% 29.65 in 10.0 mi NW 25.3 mph - N/A   Clear
9:53 PM 19.4 °F 2.1 °F 17.6 °F 93% 29.65 in 10.0 mi NW 24.2 mph 29.9 mph N/A   Clear
10:13 PM 19.4 °F 3.6 °F 15.8 °F 86% 29.65 in 10.0 mi NW 19.6 mph - N/A   Clear
10:33 PM 19.4 °F 2.5 °F 15.8 °F 86% 29.65 in 10.0 mi NW 23.0 mph - N/A   Clear
10:53 PM 17.6 °F 0.5 °F 15.8 °F 93% 29.65 in 10.0 mi NW 21.9 mph 28.8 mph N/A   Clear
11:13 PM 17.6 °F 1.3 °F 15.8 °F 93% 29.65 in 7.0 mi NW 19.6 mph 26.5 mph N/A   Clear
11:33 PM 17.6 °F 0.5 °F 15.8 °F 93% 29.66 in 7.0 mi NW 21.9 mph - N/A   Clear
11:53 PM 17.6 °F 0.5 °F 14.0 °F 86% 29.67 in 10.0 mi NW 21.9 mph - N/A   Clear